Theta_e
351 351 350 350 351 350 348 349 351 350 350 349 348 348 347 346 346 342 344 343 344 342 342 340 341 341 343 342 341 344 346 343 339 339 346 341 340 343 342 344 343 342 335
351 352 351 351 351 353 350 346 350 349 347 347 345 346 347 347 346 344 345 344 342 342 341 340 337 338 339 340 340 341 347 346 343 341 337 347 343 340 342 341 343 343 339
352 352 350 351 353 352 351 349 350 350 347 347 348 348 349 348 348 348 347 344 343 342 341 341 340 339 339 339 338 340 345 345 347 343 341 338 340 345 340 344 342 341 342
351 350 353 351 353 351 352 352 347 348 347 347 348 349 349 349 348 349 349 348 347 342 342 342 338 339 345 341 343 345 344 344 343 344 344 343 341 339 340 341 341 342 340
350 352 353 351 351 348 347 345 344 342 346 348 350 348 348 349 350 349 350 349 348 346 344 344 344 342 340 343 342 343 345 343 344 343 343 343 343 343 342 340 341 339 341
351 353 353 349 349 350 345 344 341 343 344 349 349 347 342 347 349 348 348 349 346 347 346 348 347 346 344 344 345 345 344 347 345 345 344 343 341 340 341 343 342 340 334
351 355 353 353 353 348 343 338 342 343 343 348 348 349 349 348 348 347 347 347 347 347 347 347 347 346 346 347 347 345 345 345 344 344 344 344 343 343 341 341 342 342 341
352 352 352 353 351 346 340 340 341 342 341 342 347 347 344 347 349 349 347 345 344 343 342 342 342 340 338 336 333 330 328 327 328 329 335 344 345 347 346 341 340 341 343
353 356 354 351 347 347 342 342 340 340 341 338 346 347 342 344 344 345 347 346 344 344 343 343 342 339 337 333 329 326 324 324 326 327 337 338 342 345 346 346 346 342 342
355 356 356 353 346 341 343 341 345 339 339 338 339 342 347 345 344 344 344 346 345 341 341 342 339 338 332 328 325 319 323 328 332 337 342 344 346 345 346 345 346 345 343
357 356 355 353 346 342 346 345 343 341 337 336 337 337 338 346 344 339 337 339 343 340 333 334 335 331 327 325 319 315 319 325 330 335 338 343 345 347 347 348 347 345 346
356 357 354 353 345 346 344 343 341 335 333 336 336 335 336 336 338 341 335 337 335 330 329 330 327 326 325 324 319 313 311 315 321 328 331 332 334 335 338 341 348 345 345
355 356 355 354 347 346 347 347 344 334 334 335 334 333 333 332 333 337 339 338 335 328 326 325 325 325 325 324 323 320 313 310 311 314 321 328 330 330 330 333 341 345 345
353 354 354 354 349 347 349 347 344 339 333 332 332 331 330 330 331 338 340 338 332 330 326 326 324 324 324 326 323 323 318 316 314 313 310 311 315 321 325 327 330 340 346
354 351 352 354 350 347 349 348 344 337 330 325 331 330 329 328 328 328 337 338 332 330 323 325 326 325 324 325 323 323 322 318 318 318 318 315 316 313 310 316 323 326 331
353 350 351 354 351 348 348 347 345 337 332 331 329 328 327 326 326 327 327 336 335 330 322 325 324 326 323 324 322 323 324 323 318 318 318 318 318 317 313 311 310 311 315
352 353 353 354 352 349 349 347 345 339 330 330 331 327 325 325 325 327 327 327 328 332 323 320 322 322 325 324 325 325 324 324 323 318 318 319 319 318 317 315 311 316 316
352 352 353 353 353 349 349 349 347 341 329 329 325 326 324 323 323 324 325 326 327 326 322 324 324 325 324 325 326 323 323 323 323 321 319 319 319 318 318 317 314 315 316
353 354 353 352 353 349 349 349 346 340 334 324 318 322 323 323 320 321 325 323 323 323 324 323 324 324 323 322 321 323 321 322 323 320 320 321 319 319 318 317 317 316 316
354 355 354 353 353 349 349 349 346 340 329 324 322 324 324 324 323 323 324 324 323 323 324 325 324 324 322 317 317 321 318 321 320 318 319 320 319 319 319 319 318 317 317
355 356 354 354 354 350 349 348 346 339 331 324 324 325 324 324 324 324 323 324 325 324 323 325 326 324 322 315 313 319 316 318 321 318 318 319 315 313 312 311 314 312 314
357 357 355 356 355 351 350 348 346 340 331 323 325 326 326 327 326 326 326 327 325 324 326 324 324 324 324 316 314 316 317 317 317 316 316 315 313 312 310 310 311 312 313
360 359 358 357 356 352 350 349 345 340 332 322 324 325 326 326 325 327 326 326 327 326 325 324 324 322 317 315 315 317 316 316 317 315 314 317 312 310 308 309 308 308 309
359 359 359 357 355 353 351 349 345 341 328 320 324 325 324 323 324 324 324 319 323 325 324 322 316 317 316 316 317 317 317 316 315 314 313 312 311 311 310 309 308 306 306
358 359 358 357 355 354 351 348 346 336 322 321 324 325 322 318 319 316 317 318 318 320 323 324 319 319 317 317 317 318 317 315 314 313 312 311 311 312 312 310 309 307 307
358 357 358 356 354 353 349 344 343 337 321 322 324 324 318 317 316 316 325 326 326 323 320 320 320 319 320 321 320 319 318 316 315 314 313 313 312 312 312 311 312 309 308
Wind_Speed
6 3 0 5 10 4 4 5 9 10 9 7 8 7 13 15 14 13 12 17 17 16 16 14 14 14 14 14 13 13 12 12 12 12 11 11 11 12 12 12 12 10 10
3 4 3 3 4 4 2 4 4 6 4 7 7 10 11 16 18 16 16 15 16 17 17 17 15 12 10 12 11 11 11 11 10 11 12 13 12 13 14 13 13 11 10
1 3 3 2 1 3 3 5 6 6 5 8 14 17 13 11 12 16 19 18 18 15 15 15 14 13 11 10 11 10 10 11 12 12 12 14 15 14 14 14 15 14 13
2 1 3 1 0 3 6 6 7 5 3 4 2 4 8 8 13 15 15 17 18 20 14 12 13 13 10 8 8 8 11 11 13 13 13 14 15 16 17 16 17 17 16
1 2 1 4 1 2 3 7 6 3 7 7 6 4 6 10 8 8 11 9 12 16 12 9 13 8 13 11 8 8 8 17 13 12 14 15 17 17 19 19 20 20 20
4 4 2 4 3 1 3 1 4 5 2 8 10 9 12 11 10 8 6 6 5 5 4 5 7 6 9 8 4 4 4 8 15 16 17 18 19 20 21 23 24 23 24
8 7 5 5 3 6 2 2 4 8 6 11 14 12 14 11 9 10 11 10 9 11 9 8 7 5 4 5 1 1 1 5 10 13 17 22 25 26 27 27 27 27 26
8 8 4 3 7 5 4 6 6 6 4 4 12 8 3 5 8 8 13 14 14 16 16 15 15 14 13 10 7 6 5 4 5 7 9 12 18 25 31 34 31 29 30
8 7 6 5 7 6 5 6 6 8 3 3 11 4 2 3 4 5 12 15 16 15 14 14 12 10 8 7 7 8 6 6 7 9 10 13 17 22 27 31 35 37 32
8 6 6 7 7 9 7 7 6 7 6 4 2 1 1 18 3 2 6 15 14 16 16 16 12 9 6 6 9 8 7 7 7 9 9 10 15 16 19 26 35 39 35
8 8 8 10 9 9 8 4 4 5 6 7 5 2 4 6 9 5 3 4 14 15 15 13 12 9 6 6 8 8 7 7 9 10 11 10 10 12 13 14 25 34 33
11 10 10 10 7 8 6 4 5 4 5 7 7 8 6 3 5 6 4 7 14 11 14 13 9 6 5 7 11 13 10 9 9 10 12 14 16 16 19 19 14 32 30
13 11 13 11 9 8 7 5 4 5 5 9 9 11 11 10 9 9 17 9 5 7 6 10 8 5 4 5 8 11 15 14 13 12 11 13 16 17 20 23 24 10 17
15 14 15 11 10 8 7 5 4 4 4 5 8 10 11 10 8 11 19 21 3 2 2 3 6 5 3 3 5 6 10 15 17 17 16 15 16 17 19 22 23 27 7
15 15 17 14 12 10 8 7 6 5 5 4 6 9 9 7 7 9 18 30 21 4 2 7 3 6 3 3 1 3 4 8 14 17 20 20 21 21 19 18 19 21 20
19 19 19 18 16 15 13 10 9 7 7 6 7 8 7 6 6 8 10 21 21 10 3 6 6 8 2 3 4 3 4 2 6 11 14 17 18 21 21 21 20 19 18
23 22 21 22 21 20 18 15 12 8 8 8 7 7 7 7 9 10 9 8 13 18 13 9 11 11 6 6 3 5 6 5 3 5 9 12 14 14 16 17 18 20 21
26 23 25 24 22 22 21 18 16 13 10 9 8 12 10 7 7 7 6 7 12 18 26 19 14 9 3 2 5 12 8 6 3 3 6 9 12 10 11 11 10 10 13
29 27 28 26 25 25 24 20 16 15 11 9 11 12 11 9 8 10 12 16 16 17 20 22 14 11 10 10 5 7 12 9 7 6 7 9 10 9 9 9 7 7 7
32 31 31 29 28 28 26 23 19 16 13 12 13 12 11 11 10 11 13 15 16 16 15 17 14 13 8 8 8 8 8 10 12 13 9 10 10 9 10 8 8 9 10
35 33 33 30 28 29 29 26 23 19 17 16 15 14 13 13 13 12 11 11 14 15 15 15 15 11 7 7 7 6 8 5 6 14 10 13 12 12 13 12 10 12 13
37 36 35 32 30 31 31 27 25 22 19 20 20 16 13 13 12 11 10 8 10 15 16 20 14 10 7 4 4 5 8 9 4 10 13 10 11 17 17 12 12 9 13
37 36 36 34 34 33 30 27 26 23 22 22 22 21 17 14 14 15 12 11 11 14 19 21 16 11 8 6 8 7 9 8 4 9 11 6 14 14 12 14 17 14 14
29 32 36 35 35 35 31 29 27 24 24 23 23 21 20 19 17 16 17 16 15 16 15 11 10 11 10 10 9 7 7 8 6 6 8 4 8 12 9 15 19 23 17
28 31 33 35 36 38 32 31 26 22 24 25 23 21 20 21 20 19 18 17 14 13 11 9 7 8 8 6 4 4 2 4 4 2 3 6 7 12 13 7 18 19 18
27 29 32 33 34 35 32 32 25 18 24 26 23 22 21 21 22 22 18 17 15 15 13 11 9 8 7 7 6 6 5 2 1 3 4 4 9 7 7 7 18 19 20
Wind_Direction
207 235 343 290 260 293 262 253 229 247 266 264 257 242 227 229 223 226 218 201 203 206 206 202 201 204 200 195 191 190 190 195 196 201 200 199 196 199 200 199 196 203 200
154 138 189 225 244 255 266 271 252 240 279 253 264 254 236 223 232 227 220 205 202 206 206 208 214 207 210 208 201 198 199 200 213 208 209 209 214 210 209 206 206 212 211
194 200 165 221 281 225 250 279 267 253 235 265 261 261 255 236 237 235 230 214 211 211 211 216 218 220 214 204 209 211 208 214 218 222 220 219 222 228 223 217 214 217 218
265 196 212 273 156 317 278 259 240 280 63 236 189 140 229 215 222 235 230 223 226 216 213 222 215 223 213 216 212 222 229 226 227 229 232 231 231 229 230 230 225 223 220
35 250 194 89 63 34 96 128 125 138 76 76 122 132 167 148 146 188 201 196 214 218 231 242 224 239 222 226 234 250 254 227 234 239 242 245 243 241 239 236 236 235 231
205 229 170 121 117 187 117 143 122 110 58 80 101 105 111 141 127 107 149 183 118 131 198 217 209 219 215 217 240 262 261 224 237 250 254 253 250 248 245 242 239 237 236
188 206 170 170 197 183 105 120 128 106 101 118 109 83 72 131 111 97 99 112 120 113 111 114 117 127 173 167 117 45 255 237 247 256 261 259 257 254 249 245 243 239 235
200 201 159 127 152 152 117 103 129 130 132 132 139 120 51 60 88 122 128 129 125 115 106 102 105 100 100 94 67 31 6 331 298 285 276 281 274 263 253 247 243 241 238
190 183 151 145 158 167 142 121 112 140 139 128 165 161 122 179 123 120 156 141 130 127 123 124 119 108 92 69 33 12 359 342 327 313 315 303 289 277 261 248 246 242 238
193 187 168 165 160 153 140 129 115 128 122 126 147 112 143 151 145 81 121 153 146 136 137 143 133 125 97 52 20 13 22 19 10 358 349 330 323 305 272 260 253 237 234
188 203 188 176 165 156 157 145 143 120 125 111 106 119 131 171 154 132 136 126 155 144 137 135 137 132 102 45 41 43 36 33 30 23 16 4 356 6 8 317 243 223 227
193 201 190 184 181 182 174 152 123 125 143 129 102 119 117 143 156 152 117 153 138 124 128 133 126 105 66 62 66 47 42 41 35 32 26 26 28 23 20 4 320 206 225
203 200 201 191 190 184 172 164 152 117 150 144 118 121 123 126 140 166 158 143 134 137 115 114 112 87 64 78 65 49 49 45 41 35 31 27 29 30 32 38 40 39 222
213 208 197 194 197 188 170 170 158 102 83 139 119 128 117 116 128 149 162 147 103 98 108 136 131 112 117 79 79 49 42 51 51 47 41 38 33 30 32 37 43 44 67
215 212 201 196 195 190 199 191 179 164 154 143 136 142 133 124 132 143 177 169 157 142 199 183 168 179 144 170 96 45 32 46 53 52 50 48 45 40 40 39 45 51 63
216 206 199 200 198 194 197 198 194 183 179 164 150 153 148 147 133 151 152 178 176 142 149 168 185 171 164 196 173 357 1 2 40 47 44 41 41 43 47 46 49 56 59
214 211 206 202 200 194 197 194 196 200 193 175 178 173 158 157 134 133 145 160 180 184 143 148 143 151 124 112 103 3 357 348 314 29 33 28 26 34 42 50 59 59 54
216 216 209 206 205 200 202 203 201 198 198 191 186 176 164 160 146 137 154 174 165 170 147 141 152 155 108 127 50 64 61 29 36 308 3 8 8 10 21 35 49 54 53
218 214 207 208 206 203 204 210 209 196 198 189 179 176 165 155 134 134 131 142 143 148 146 142 132 119 104 98 97 66 52 50 67 75 359 11 6 350 350 356 4 1 10
216 215 210 213 208 202 205 206 203 198 188 185 181 179 171 173 170 161 149 148 157 154 151 151 133 135 104 71 59 50 38 100 75 48 46 17 15 41 23 0 341 325 316
219 218 211 213 212 207 205 205 203 199 191 184 184 185 184 180 175 174 170 163 167 165 145 153 140 130 107 66 45 40 37 76 84 17 19 57 74 52 37 30 20 1 338
218 213 212 214 210 210 211 213 207 199 197 190 183 186 181 175 167 165 166 154 170 175 174 152 152 137 119 92 73 76 49 42 18 23 26 61 28 9 7 8 11 359 4
217 216 217 215 212 211 211 213 209 205 201 196 191 185 185 182 176 171 162 150 135 163 171 165 154 151 140 118 124 94 67 44 30 19 6 5 4 23 29 36 14 356 355
228 227 225 220 212 214 210 209 209 208 205 197 200 196 191 182 179 177 169 156 155 155 157 158 153 140 146 131 125 99 58 32 48 21 18 355 10 12 26 23 16 12 355
228 227 227 225 218 214 209 203 200 206 202 198 198 202 203 193 180 175 168 160 169 164 168 163 152 153 161 163 142 144 103 59 36 2 12 344 348 344 334 328 2 4 3
235 234 229 226 221 213 199 196 193 200 206 203 199 204 203 197 189 183 184 184 189 184 182 184 185 191 206 216 219 235 244 242 14 327 330 292 307 318 317 277 330 342 340